Other Public Products
Issued by NWS Grand Forks, ND

Home | Current Version | Previous Version | Text Only | Print | Product List | Glossary On
Versions: 1 2 3 4 5 6 7 8 9 10 11 12 13 14 15 16 17 18 19 20 21 22 23 24 25 26 27 28 29 30 31 32 33 34 35 36 37 38 39 40 41 42 43 44 45 46 47 48 49 50
000
FPUS83 KFGF 191031
OPUFGF
PRAIRIE TO PINES WEATHER ROUNDUP
NATIONAL WEATHER SERVICE EASTERN NORTH DAKOTA/GRAND FORKS ND
400 AM CST SUN NOV 19 2017

 **SATELLITE DATA USED TO AUGMENT SKY COVER AT AUTOMATED STATIONS**
 *****  WEATHER ACROSS EASTERN NORTH DAKOTA  *****

CITY           SKY/WX    TMP DP  RH WIND       PRES   REMARKS
GRAND FORKS    FAIR      12   8  84 SW6       30.00F WCI   3
GRND FORKS AFB CLEAR     12   7  79 W6        29.99F WCI   2
GRND FORKS NWS   N/A     12 N/A N/A SW5         N/A  WCI   4
BUXTON           N/A     -3  11 100 SW6         N/A  WCI -15
DEVILS LAKE    FAIR      19  16  88 SW8       29.94F WCI   9
FARGO          FAIR      12   8  84 S6        30.02F WCI   3
WAHPETON ARPT  NOT AVBL
$$

 *****  WEATHER ACROSS CENTRAL AND WESTERN NORTH DAKOTA  *****

CITY           SKY/WX    TMP DP  RH WIND       PRES   REMARKS
JAMESTOWN      FAIR      20  16  84 CALM      29.96F
BISMARCK       FAIR      26  21  81 CALM      29.99F
MINOT          FAIR      26  20  77 S7        29.88F WCI  18
MINOT AFB      FAIR      25  20  81 CALM      29.87F
GARRISON         N/A     28  25  88 W8        29.92F WCI  20
WILLISTON      FAIR      21  18  88 SW6       29.92F WCI  13
DICKINSON      FAIR      30  20  66 SW15      29.93F WCI  19
HETTINGER      FAIR      21  15  78 W7        30.00F WCI  12
$$

 *****  OTHER OBSERVATIONS NORTHEAST NORTH DAKOTA  *****

CITY           SKY/WX    TMP DP  RH WIND       PRES   REMARKS
WALHALLA       FAIR      16  10  79 W6        29.94F WCI   7
LANGDON        NOT AVBL
CAVALIER       FAIR      12   7  79 CALM      29.95F
GRAFTON        NOT AVBL
CANDO          FAIR      14  14 100 CALM      29.93F
FORT TOTTEN      N/A     17  13  84 SW3       29.95S
ROLLA          PTSUNNY   14  10  85 SW13      29.88F WCI   0
RUGBY          NOT AVBL
 ***** THE ABOVE OBSERVATIONS ARE NON NWS ARE NOT QUALITY
        CONTROLLED AND MAY MIS-REPORT RAIN FOR SNOW...
$$

 *****  OTHER OBSERVATIONS SOUTHEAST NORTH DAKOTA *****

CITY           SKY/WX    TMP DP  RH WIND       PRES   REMARKS
COOPERSTOWN    FAIR      16  12  86 SW3       29.96F
VALLEY CITY    NOT AVBL
OAKES            N/A     14  12  92 SW5       30.01F WCI   6
GWINNER          N/A     16  12  86 S7        30.01S WCI   6
SHEYENNE NWR     N/A     11   8  89 SW2       29.95S
BUFFALO          N/A     16  11  81 NE8         N/A  WCI   5
WYNDMERE       NOT AVBL
 ***** THE ABOVE OBSERVATIONS ARE NON NWS ARE NOT QUALITY
       CONTROLLED AND MAY MIS-REPORT RAIN FOR SNOW...
$$

  *****  WEATHER ACROSS NORTHERN MINNESOTA  *****

CITY           SKY/WX    TMP DP  RH WIND       PRES   REMARKS
FLAG ISLAND    FAIR       7   1  78 W10       29.91S WCI  -8
WARROAD        FAIR       7   3  85 SW6       29.94S WCI  -3
ROSEAU         FAIR      10   5  79 SW6       29.95S WCI   1
HALLOCK        MOCLDY     9   5  85 S3        29.96F
THF RVR FALLS  FAIR      12   7  80 SW7       29.99S WCI   1
HALSTAD          N/A     11   7  82 SW5         N/A  WCI   3
FOSSTON        FAIR       9   7  92 SW6       29.98S WCI  -1
BAUDETTE       FAIR       4   1  88 CALM      29.92F
WASKISH        FAIR      12   7  79 W9        29.95S WCI   0
CROOKSTON      FAIR      10   9  92 S5        30.01S WCI   2
$$
  *****  WEATHER ACROSS CENTRAL AND WEST MINNESOTA  *****

CITY           SKY/WX    TMP DP  RH WIND       PRES   REMARKS
BEMIDJI        FAIR       9   6  84 SW6       29.95S WCI   0
PARK RAPIDS    FAIR       8   3  80 W5        29.97F WCI   0
WADENA         FAIR      10   9  92 SW5       29.98F WCI   2
DETROIT LAKES  FAIR      16  12  86 SW3       29.99F
MOORHEAD       FAIR      10   7  85 CALM      30.03F
FERGUS FALLS   FAIR      10   9  92 CALM      30.06F
ELBOW LAKE     FAIR      10   8  89 S5        30.03F FOG     WCI   2
MORRIS MN      FAIR      16  10  79 S3        30.04S
STAPLES        FAIR      10   9  92 W3        29.99F
WHEATON        FAIR      12   9  85 S5        30.05F WCI   4
$$
  *****  WEATHER ELSEWHERE ACROSS MINNESOTA  *****

CITY           SKY/WX    TMP DP  RH WIND       PRES   REMARKS
DULUTH         FAIR      11   7  84 W10       29.92F WCI  -3
INTRNTL FALLS  FAIR       7   2  80 W7        29.92F WCI  -5
ELY            FAIR      10   5  79 W8        29.89S WCI  -1
CLOQUET        FAIR      10   7  85 W8        29.95F WCI  -1
BRAINERD       FAIR      14   7  73 W5        30.00F WCI   6
HIBBING        FAIR       8   5  87 W6        29.94S WCI  -2
ALEXANDRIA     FAIR      15  10  80 W8        30.02F WCI   4
SAINT CLOUD    FAIR      13   9  84 SW7       30.05F WCI   3
MINNEAPOLIS    FAIR      19  11  70 W8        30.08F WCI   9
$$

  *****  WEATHER ACROSS SOUTH DAKOTA  *****

CITY           SKY/WX    TMP DP  RH WIND       PRES   REMARKS
SIOUX FALLS    FAIR      22  16  78 VRB3      30.12F
BROOKINGS      FAIR      20  15  81 SW7       30.08F WCI  11
WATERTOWN      FAIR      19  15  84 SW9       30.04F WCI   8
HURON          FAIR      23  18  81 S9        30.09F WCI  13
SISSETON         N/A     25  16  68 W9        30.03F WCI  15
ABERDEEN       FAIR      15  13  91 S7        30.06F WCI   5
MITCHELL       FAIR      24  19  81 SW8       30.12F WCI  15
PIERRE         FAIR      27  23  85 W10       30.07F WCI  17
MOBRIDGE       FAIR      21  17  84 SE3       30.02F
RAPID CITY     FAIR      23  14  68 CALM      30.06F
$$

  *****  SOME WEATHER IN NEARBY STATES *****

CITY           SKY/WX    TMP DP  RH WIND       PRES   REMARKS
GLASGOW MT     FAIR      26  19  74 W6        29.91F WCI  19
GREAT FALLS MT FAIR      39  14  36 SW24G36   29.93S
CHEYENNE WY    FAIR      33  12  41 W17       30.17S WCI  22
SCOTTSBLUFF NE FAIR      22  12  65 CALM      30.17F
OMAHA NE       FAIR      26  19  74 N5        30.23S WCI  20
DES MOINES IA  FAIR      26  15  63 NW12      30.17R WCI  16
DAVENPORT IA   FAIR      24  16  71 NW14G21   30.07R WCI  12
CHICAGO IL     CLOUDY    33  22  63 NW15      29.91R WCI  23
EAU CLAIRE WI  FAIR      17  11  77 W9        30.02S WCI   6
LA CROSSE WI   FAIR      23  13  65 NW16G25   30.04S WCI  10
$$

  *****  SOME NATIONAL WEATHER *****

CITY           SKY/WX    TMP DP  RH WIND       PRES   REMARKS
LA GUARDIA NY  LGT RAIN  59  55  87 SW15      29.25F
RALEIGH NC     LGT RAIN  57  55  93 W10G18    29.60R
ATLANTA GA     MOCLDY    47  38  71 NW23G29   29.91R
NEW ORLEANS LA MOCLDY    55  41  59 N17G32    30.09R
OKLAHOMA CITY  FAIR      33  24  69 W5        30.31S
ALBUQUERQUE NM FAIR      33   8  35 NW5       30.35F
SALT LAKE CITY MOCLDY    31  24  75 SE7       30.32F WCI  24
LOS ANGELES CA FAIR      63  25  23 N7        30.05F
BOISE ID       FAIR      34  22  61 SE8       30.22F
SEATTLE WA     CLOUDY    41  35  79 SE9       30.06F
$$

*** WEATHER ACROSS MANITOBA...SASKATCHEWAN AND ONTARIO ***
                ***ONTARIO***

CITY           SKY/WX    TMP DP  RH WIND       PRES   REMARKS
GERALDTON      FLURRIES  10   5  79 NW3       29.77S
THUNDER BAY    FLURRIES  16   9  73 NW7G17    29.88S WCI   6
SIOUX LOOKOUT  FLURRIES  10   5  79 W7        29.82S WCI   0
TORONTO        CLOUDY    36  30  80 NW24G33   29.41R
BIG TROUT LK   FLURRIES   9   5  85 W9G17     29.68S WCI  -5
PICKLE LAKE    NOT AVBL
DRYDEN         PTCLDY     9   5  85 W9        29.84S WCI  -5
KENORA         CLEAR      3   0  85 W6        29.87  WCI  -8
$$
                *** MANITOBA***

CITY           SKY/WX    TMP DP  RH WIND       PRES   REMARKS
BRANDON        MOCLDY    10   7  85 NW2       29.87F
DAUPHIN        FLURRIES  18  12  79 W2        29.87F
ISLAND LAKE    FLURRIES  10   5  79 W15       29.71  WCI  -6
PILOT MOUND      N/A      7   3  85 S6          N/A  WCI  -3
THE PAS        PTCLDY     0  -6  78 W8        29.85S WCI -15
THOMPSON       FLURRIES  10   5  79 W13G18    29.69R WCI  -5
WINNIPEG       MOCLDY     7   1  78 SW5       29.94F WCI  -2
LYNN LAKE      FLURRIES   5   1  85 NW14G21   29.73R WCI -12
CHURCHILL      LGT SNOW   9   7  92 W16G24    29.40F DRFTSNOWWCI  -9
GILLAM         LGT SNOW   7   0  72 W16       29.60S WCI -11
$$
                ***SASKATCHEWAN***

CITY           SKY/WX    TMP DP  RH WIND       PRES   REMARKS
ESTEVAN        PTCLDY    27  21  80 SW13      29.84F WCI  16
KINDERSLEY     PTCLDY    12   9  85 SW7       29.76F WCI   2
LLOYDMINSTER   MOCLDY    18  14  86 NW3       29.75F
PRINCE ALBERT  PTCLDY    -2  -8  78 CALM      29.85S
REGINA         PTCLDY    18  14  86 S5        29.82S WCI  11
YORKTON        CLOUDY    12   9  85 S6        29.81F WC



USA.gov is the U.S. government's official web portal to all federal, state and local government web resources and services.